Location: Baile an Phoill
(52.3533°N, 7.3403°W)
Time: 07:10:37
(UTC+00:00)

Daily predictions for brighter satellites

Satellite Brightness Start Highest point End
(mag) Time Altitude Azimuth Time Altitude Azimuth Time Altitude Azimuth
DMSP B5D2-2 4.1 20:39:31 10° NNE 20:44:47 84° ESE 20:50:02 10° SSW
SPOT 1/Viking Rocket 4.3 20:40:51 10° SE 20:45:39 38° ENE 20:50:29 10° N
Genesis I 3.9 20:42:48 10° NW 20:46:33 45° NE 20:50:18 10° ESE
SL-4 R/B 3.5 20:44:15 10° S 20:46:37 15° SE 20:48:53 10° ESE
BREEZE-M DEB (TANK) 2.7 20:44:59 10° SW 20:47:22 37° SSE 20:52:14 10° E
ATLAS 5 CENTAUR R/B 3.0 20:44:01 10° NW 20:49:26 53° SW 20:55:45 10° SSE
Cosmos 1140 Rocket 4.4 20:46:49 10° SSE 20:51:18 29° E 20:55:47 10° NE
Cosmos 389 Rocket 2.6 20:49:43 10° NNW 20:53:10 75° W 20:56:37 10° S
Cosmos 2228 Rocket 3.8 20:49:20 10° NNW 20:53:41 55° W 20:57:59 10° S
Cosmos 1812 2.7 20:52:24 10° NNW 20:56:16 87° W 21:00:07 10° S
Cosmos 1697 Rocket 2.7 20:51:14 10° NNW 20:56:53 89° NE 21:02:31 10° SSE
Cosmos 1833 Rocket 3.0 20:54:47 10° S 21:00:05 45° ESE 21:05:25 10° NE
Cosmos 1633 Rocket 3.8 20:56:26 10° SSE 21:00:24 33° E 21:04:23 10° NNE
SPOT 3 Rocket 4.1 20:58:06 10° S 21:03:15 59° WSW 21:08:25 10° NNW
Cosmos 2251 Rocket 4.0 21:00:34 10° SW 21:05:49 69° WNW 21:11:09 10° NNE
CENTAUR R/B 4.1 21:04:54 10° ESE 21:07:12 12° E 21:09:37 10° E
Cosmos 1707 Rocket 3.5 21:03:25 10° N 21:07:49 81° E 21:12:08 10° SSE
Cosmos 1656 4.5 21:02:47 10° NW 21:08:02 47° WSW 21:13:17 10° S
Resurs 01 Rocket 2.1 21:06:54 10° S 21:11:17 63° WSW 21:15:42 10° NNW
Landsat 7 3.9 21:09:19 10° SSE 21:14:02 70° ENE 21:18:48 10° N
Cosmos 1441 Rocket 3.1 21:11:03 10° S 21:14:51 88° E 21:18:38 10° NNE
ATLAS 5 CENTAUR R/B 2.9 21:16:59 10° NNW 21:18:50 23° NNE 21:21:52 10° E
IGS 5A 3.4 21:17:39 10° SSE 21:21:47 81° ENE 21:25:57 10° NNW
Cosmos 1470 Rocket 4.4 21:19:31 12° SSE 21:23:08 33° E 21:27:03 10° NNE
Cosmos 614 Rocket 3.9 21:18:26 10° SSW 21:23:36 82° ESE 21:28:50 10° NNE
Cosmos 2360 4.4 21:18:24 10° NNW 21:24:10 77° WSW 21:29:33 12° SSE
Cosmos 1934 Rocket 4.1 21:18:53 10° S 21:25:08 63° E 21:31:26 10° NNE
GP-B 3.2 21:22:00 10° N 21:26:26 59° E 21:30:41 11° SSE
Cosmos 921 Rocket 3.3 21:27:37 10° NNW 21:31:48 52° ENE 21:34:50 17° SE
NOSS 3-2 (A) 4.2 21:27:27 10° S 21:32:18 29° ESE 21:37:41 10° ENE
USA 267 3.3 21:26:33 10° ENE 21:33:03 62° SE 21:39:32 10° SW
Cosmos 1862 Rocket 3.6 21:29:51 10° N 21:34:22 77° ENE 21:38:10 14° SSE
COSMOS 2406 3.4 21:32:38 10° SW 21:38:24 78° WNW 21:44:11 10° NNE
Cosmos 1821 Rocket 4.3 21:32:25 10° SSW 21:38:33 72° WNW 21:44:49 10° N
Meteor 2-20 Rocket 4.5 21:32:28 10° N 21:38:42 86° E 21:44:35 11° S
SL-16 R/B 3.0 21:34:25 10° NNW 21:39:50 43° NE 21:44:17 15° ESE
SAR-Lupe-2 4.4 21:36:54 10° NNE 21:40:09 31° E 21:41:56 20° SE
ERS-1 Rocket 3.0 21:36:08 15° SSE 21:40:17 69° ENE 21:45:18 10° N
Lacrosse 5 2.1 21:35:57 10° WNW 21:41:03 72° NNE 21:45:32 13° ESE
Cosmos 468 Rocket 4.5 21:36:41 10° NNW 21:41:55 52° ENE 21:45:45 18° SE
Sich 1 3.7 21:38:37 10° SSW 21:43:00 59° WNW 21:47:24 10° N
Cosmos 2369 4.4 21:39:15 10° NW 21:44:46 49° WSW 21:50:01 11° S
NOSS 2 (A) 4.0 21:47:02 10° NW 21:49:48 89° NE 21:50:43 34° SE
Cosmos 2219 Rocket 4.4 21:46:14 10° NNW 21:50:04 18° NNE 21:53:54 10° ENE
Cosmos 2082 Rocket 2.2 21:47:36 10° SSW 21:53:14 66° ESE 21:58:53 10° NE
Cosmos 1954 Rocket 4.1 21:48:07 10° S 21:53:19 56° ESE 21:58:33 10° NNE
Meteor 1-4 Rocket 3.4 21:50:24 10° NNW 21:53:45 44° W 21:56:38 13° SSW
Cosmos 2278 4.1 21:48:28 10° NW 21:54:06 60° WSW 21:58:39 16° S
Cosmos 1184 Rocket 2.7 21:53:56 16° S 21:56:25 77° E 21:59:44 10° NNE
Cosmos 2123 Rocket 4.3 21:50:19 10° NNW 21:56:28 65° W 22:02:37 10° S
Spot 2 Rocket 4.1 21:51:37 10° S 21:56:36 54° W 22:01:38 10° NNW
CARTOSAT-1 3.6 21:57:11 19° SSE 22:00:18 83° WSW 22:04:40 10° NNW
Cosmos 2322 Rocket 2.8 21:56:44 10° NNW 22:02:17 49° NE 22:06:13 19° ESE
Terra 1.9 22:00:02 21° SSE 22:03:08 70° ENE 22:07:54 10° N
Cosmos 1933 Rocket 3.7 22:01:23 20° SSE 22:04:15 57° E 22:08:37 10° NNE
Cosmos 1190 Rocket 4.1 21:59:06 10° SSW 22:04:23 80° WNW 22:09:45 10° NNE
Cosmos 1666 Rocket 4.3 22:00:34 10° SSW 22:04:48 52° WNW 22:09:03 10° N
Okean 1 3.3 22:00:48 10° N 22:04:51 75° ENE 22:07:06 25° SSE
Cosmos 407 Rocket 4.0 22:02:02 10° SW 22:07:19 65° WNW 22:12:36 10° NNE
Cosmos 1238 Rocket 1.9 22:06:54 29° S 22:08:15 74° E 22:11:12 10° NNE
Cosmos 1602 3.9 22:06:47 25° SSE 22:08:51 56° E 22:12:43 10° NNE
Cosmos 1437 Rocket 2.9 22:05:21 10° N 22:09:09 58° ENE 22:10:50 30° SE
USA 234 3.7 22:06:06 20° SSE 22:10:35 49° SW 22:16:55 10° WNW
Meteor 1-20 Rocket 4.3 22:05:29 10° S 22:11:13 81° E 22:17:07 10° NNE
Cosmos 1605 Rocket 3.9 22:05:47 10° S 22:11:55 86° E 22:18:03 10° N
ERBS 3.6 22:09:03 10° W 22:12:13 41° NNW 22:15:24 10° ENE
Cosmos 1869 Rocket 4.5 22:13:01 25° SE 22:14:31 32° E 22:18:29 10° NNE
Cosmos 2360 Rocket 3.2 22:11:03 10° NNW 22:16:22 39° NE 22:20:20 17° ESE
SPOT 5 2.8 22:15:08 22° S 22:17:54 66° WSW 22:22:15 10° NNW
Meteor 1-19 Rocket 4.1 22:15:43 10° NNW 22:21:11 88° WSW 22:24:35 24° S
ATLAS 3B R/B 4.0 22:21:12 17° ESE 22:21:40 17° ESE 22:25:39 10° ENE
Cosmos 1703 Rocket 3.5 22:17:40 10° N 22:22:04 85° E 22:24:15 29° SSE
Cosmos 2242 Rocket 3.7 22:17:56 10° NNW 22:22:23 73° W 22:24:58 24° S
Iridium 4 Rocket 3.8 22:21:45 28° SE 22:23:17 37° E 22:27:11 10° NNE
Geosat 4.3 22:20:48 24° SE 22:23:48 60° NE 22:28:46 10° NNW
Cosmos 2173 Rocket 4.4 22:21:11 24° SSE 22:24:33 46° E 22:30:20 10° NNE
Cosmos 1980 Rocket 3.1 22:19:41 10° NW 22:24:58 40° WSW 22:28:51 17° S
SL-4 R/B 1.9 22:21:56 10° SW 22:25:38 48° SSE 22:27:13 28° E
Cosmos 1500 3.9 22:25:10 31° ESE 22:25:50 33° E 22:29:14 10° NNE
Cosmos 405 Rocket 2.5 22:24:29 27° S 22:26:25 87° E 22:30:10 10° NNE
USA 238 DEB 3.7 22:21:22 10° SSW 22:27:53 60° SE 22:34:42 10° NE
USA 238 3.7 22:21:30 10° SSW 22:27:59 60° SE 22:34:48 10° NE
Cosmos 1763 Rocket 3.5 22:22:53 10° NNW 22:28:15 86° WSW 22:31:09 28° SSE
ALOS 2 4.4 22:27:44 15° E 22:29:51 21° ENE 22:33:07 10° N
Cosmos 1140 Rocket 4.3 22:27:43 10° SW 22:32:51 53° WNW 22:38:01 10° NNE
Meteor 1-14 Rocket 4.3 22:29:24 21° S 22:33:25 73° E 22:39:22 10° NNE
Cosmos 1536 4.5 22:34:39 19° E 22:34:58 19° E 22:37:50 10° NE
Cosmos 2333 Rocket 3.7 22:31:37 10° NNW 22:36:38 29° NE 22:41:19 11° E
Cosmos 1666 4.1 22:37:32 22° E 22:37:40 22° E 22:40:36 10° NE
Meteor 1-13 Rocket 4.4 22:35:16 10° N 22:40:45 56° ENE 22:43:23 30° SE
Okean 1-7 3.2 22:39:05 10° NNW 22:43:25 67° W 22:45:21 31° S
Cosmos 1833 Rocket 3.9 22:38:46 10° WSW 22:44:05 42° NW 22:49:28 10° NNE
Cosmos 2061 Rocket 4.5 22:41:23 28° SE 22:44:11 44° E 22:50:00 10° NNE
MOS 1-B Rocket 4.3 22:39:02 10° NNE 22:44:31 44° E 22:46:44 30° SSE
Cosmos 2221 Rocket 4.0 22:40:36 10° N 22:44:57 49° ENE 22:46:29 34° SE
Cosmos 1459 Rocket 4.1 22:42:36 27° SSE 22:46:06 64° E 22:52:24 10° NNE
FALCON 9 DEB 3.1 22:45:29 10° WSW 22:48:49 57° SSE 22:48:49 57° SSE
Okean 3 3.6 22:44:53 10° N 22:49:09 63° ENE 22:50:30 40° SE
Cosmos 1867 3.6 22:43:55 10° SW 22:49:23 82° NW 22:54:53 10° NE
Cosmos 1733 Rocket 4.3 22:50:59 25° ESE 22:51:39 26° E 22:55:19 10° NNE
Cosmos 1515 4.4 22:48:07 10° NNW 22:51:51 48° W 22:53:17 31° SSW
SL-27 R/B 2.8 22:53:08 43° E 22:53:08 43° E 22:56:03 10° NE
Thor Agena Rocket 4.2 22:51:02 10° NNE 22:55:43 36° E 22:56:59 32° SE
CENTAUR R/B 2.6 22:51:50 20° SSW 22:56:04 56° SE 23:03:04 10° NE
Cosmos 1850 Rocket 3.9 22:54:34 26° SSW 22:57:39 77° ESE 23:02:57 10° NNE
Cosmos 967 Rocket 4.5 22:51:15 10° NW 22:57:41 86° NE 23:01:04 30° SE
Meteor 2-4 Rocket 3.8 22:52:28 10° NNW 22:58:12 74° W 23:00:58 31° S
Cosmos 44 3.3 22:54:41 10° NW 22:59:33 85° SW 23:01:33 38° SE
Cosmos 1802 Rocket 4.1 22:58:41 30° S 23:01:59 68° E 23:08:19 10° NNE
Spot 4 3.8 23:06:33 40° SSE 23:08:16 75° ENE 23:13:06 10° NNW
Cosmos 2346 Rocket 4.4 23:02:18 10° N 23:08:25 82° E 23:11:12 34° SSE
Cosmos 1378 4.4 23:08:36 10° N 23:11:56 29° ENE 23:12:29 28° E
USA 267 3.5 23:09:40 10° ENE 23:16:11 71° NNW 23:22:42 10° W
Cosmos 841 Rocket 3.7 23:15:06 10° NNW 23:20:15 62° WSW 23:22:05 38° S
Cosmos 540 Rocket 3.6 23:16:18 10° NNW 23:21:26 62° WSW 23:23:11 39° S
NOSS 3-2 (A) 3.6 23:16:34 10° SW 23:22:28 77° NW 23:29:21 10° NE
Lacrosse 5 2.4 23:19:06 10° WNW 23:23:51 41° SW 23:24:41 38° SSW
Cosmos 1816 Rocket 4.4 23:17:32 10° N 23:23:52 86° E 23:26:36 36° SSE
SL-16 R/B 2.8 23:18:38 10° NW 23:24:01 45° WSW 23:26:08 31° SSW
Cosmos 2322 4.0 23:21:14 10° NNW 23:26:53 62° NE 23:29:31 31° ESE
Cosmos 1378 Rocket 4.1 23:23:25 10° N 23:27:47 49° ENE 23:28:49 41° ESE
NOSS 3-2 (C) 3.4 23:23:11 14° SW 23:28:19 85° SE 23:35:08 10° NE
COSMOS 2487 4.1 23:32:14 22° ENE 23:32:14 22° ENE 23:34:10 10° NE
Cosmos 1741 Rocket 4.3 23:28:41 21° SW 23:32:13 65° WNW 23:37:30 10° NNE
Cosmos 2208 Rocket 4.3 23:28:53 10° NNW 23:34:04 56° WSW 23:35:41 39° SSW
Cosmos 1814 Rocket 4.2 23:29:03 10° NNW 23:34:09 58° WSW 23:35:45 40° SSW
Cosmos 2219 Rocket 2.8 23:29:48 10° NNW 23:35:23 52° NE 23:38:19 27° ESE
Cosmos 2084 Rocket 3.3 23:35:30 60° SSE 23:35:41 61° SE 23:39:57 10° NE
Tsikada Rocket 4.0 23:30:39 10° N 23:37:04 87° W 23:39:45 38° S
Cosmos 2082 Rocket 3.9 23:32:42 10° WSW 23:37:47 32° NW 23:42:51 10° NNE
EO 1 Del DPAF 3.1 23:36:01 10° NNE 23:39:47 70° ESE 23:39:56 69° ESE
Cosmos 2237 4.3 23:35:03 10° NW 23:40:43 63° WSW 23:42:34 41° S
Cosmos 2333 4.3 23:35:30 10° NNW 23:41:21 75° ENE 23:43:44 37° SE
Terra 3.9 23:38:55 13° SW 23:41:24 19° W 23:44:45 10° NW
Cosmos 1242 Rocket 2.4 23:42:28 10° NNW 23:46:05 78° W 23:46:07 78° WSW
Cosmos 2322 Rocket 3.1 23:41:02 10° NW 23:46:15 38° WSW 23:48:01 30° SW
ERBS 3.7 23:45:51 10° WNW 23:48:59 38° N 23:51:02 18° ENE
Helios 1A 3.7 23:49:48 37° ESE 23:50:45 44° ENE 23:54:47 10° N
Cosmos 1486 Rocket 4.5 23:52:11 39° SE 23:52:57 42° ESE 23:57:50 10° NE
Meteor 1-11 Rocket 3.8 23:51:38 36° SSW 23:54:02 75° WNW 23:59:50 10° N
Cosmos 1544 4.5 23:54:38 27° E 23:54:38 27° E 23:57:31 10° NNE
